This demonstration page uses our WeatherBlox Daily Observations layout. Learn more.

Left ArrowRight Arrow

Hourly Observations for November 8, 2018

Temp ( °F °C ) Dew Point ( °F °C ) Humidity (%) Winds ( mph kmh ) Pressure ( in mb ) Visibility ( mi km ) Precip ( " mm )
12:52 am 00:52 Cloudy 30 -1.1 22 -5.6 72 72 NNE 8 13 30.41 1030 10 16 0.00 0.00
1:23 am 01:23 Cloudy 29 -1.7 21 -6.1 72 72 NNE 7 11 30.45 1031 10 16 0.00 0.00
1:52 am 01:52 Cloudy 28 -2.2 21 -6.1 75 75 NE 6 9 30.40 1030 10 16 0.00 0.00
2:52 am 02:52 Mostly Cloudy 28 -2.2 21 -6.1 75 75 ENE 3 6 30.41 1030 10 16 0.00 0.00
3:52 am 03:52 Mostly Cloudy 28 -2.2 21 -6.1 75 75 E 3 6 30.41 1030 10 16 0.00 0.00
4:04 am 04:04 Mostly Cloudy 28 -2.2 21 -6.1 75 75 Calm 30.45 1031 10 16 0.00 0.00
4:33 am 04:33 Cloudy 28 -2.2 21 -6.1 75 75 Calm 30.45 1031 10 16 0.00 0.00
4:52 am 04:52 Cloudy 29 -1.7 21 -6.1 72 72 Calm 30.42 1030 10 16 0.00 0.00
5:14 am 05:14 Cloudy 29 -1.7 22 -5.6 75 75 Calm 30.45 1031 10 16 0.00 0.00
5:52 am 05:52 Cloudy 29 -1.7 22 -5.6 75 75 Calm 30.42 1030 10 16 0.00 0.00
6:52 am 06:52 Cloudy 29 -1.7 21 -6.1 72 72 Calm 30.42 1030 10 16 0.00 0.00
7:52 am 07:52 Cloudy 29 -1.7 21 -6.1 72 72 E 5 7 30.42 1030 10 16 0.00 0.00
8:19 am 08:19 Cloudy 30 -1.1 21 -6.1 69 69 E 5 7 30.42 1030 10 16 0.00 0.00
8:52 am 08:52 Cloudy 30 -1.1 22 -5.6 72 72 Calm 30.43 1031 10 16 0.00 0.00
9:22 am 09:22 Cloudy 30 -1.1 22 -5.6 72 72 Calm 30.45 1031 10 16 0.00 0.00
9:52 am 09:52 Cloudy 31 -0.6 22 -5.6 69 69 Calm 30.45 1031 10 16 0.00 0.00
10:52 am 10:52 Cloudy with Light Snow 32 0 22 -5.6 66 66 N 7 11 30.43 1031 9 14 0.00 0.03
11:45 am 11:45 Cloudy with Light Snow 33 0.6 22 -5.6 64 64 NNE 3 6 30.42 1030 9 14 0.00 0.03
11:52 am 11:52 Cloudy with Light Snow 33 0.6 23 -5 66 66 N 3 6 30.40 1030 9 14 0.00 0.03
11:59 am 11:59 Cloudy 33 0.6 23 -5 66 66 Calm 30.42 1030 9 14 0.00 0.03
12:52 pm 12:52 Cloudy 33 0.6 23 -5 66 66 Calm 30.38 1029 10 16 0.00 0.03
1:52 pm 13:52 Cloudy 33 0.6 23 -5 66 66 Calm 30.36 1028 10 16 0.00 0.00
2:52 pm 14:52 Cloudy 34 1.1 23 -5 64 64 Calm 30.35 1028 10 16 0.00 0.00
3:52 pm 15:52 Cloudy with Light Snow 35 1.7 23 -5 61 61 Calm 30.33 1027 9 14 0.00 0.03
4:52 pm 16:52 Cloudy 34 1.1 24 -4.4 67 67 N 3 6 30.32 1027 10 16 0.00 0.03
5:52 pm 17:52 Cloudy 34 1.1 24 -4.4 67 67 N 9 15 30.34 1028 10 16 0.00 0.00
6:52 pm 18:52 Cloudy with Light Snow 33 0.6 24 -4.4 70 70 N 9 15 30.35 1028 7 11 0.00 0.03
7:52 pm 19:52 Cloudy with Light Snow 33 0.6 24 -4.4 70 70 NNW 6 9 30.36 1028 7 11 0.00 0.00
8:52 pm 20:52 Cloudy 32 0 24 -4.4 73 73 NW 5 7 30.35 1028 7 11 0.00 0.03
9:52 pm 21:52 Cloudy 32 0 24 -4.4 73 73 NW 5 7 30.35 1028 10 16 0.00 0.00
10:52 pm 22:52 Cloudy 32 0 24 -4.4 73 73 NW 6 9 30.35 1028 10 16 0.00 0.00
11:52 pm 23:52 Cloudy 31 -0.6 23 -5 72 72 NW 6 9 30.34 1027 10 16 0.00 0.00

Powered by AerisWeather